Wind_Speed
55 54 54 54 53 53 53 53 53 53 53 54 54 54 54 53 54 55 57 59 61 62 64 65 66 67 66 66 65 63 61 59 57 54 52 53 52 50 46 43 43 45 50 56 61 63 66 67 69 72 72 70 69 68 67 66 65 65 64 62 61 62 63 64 65 66 63 57 56 56 55 53 51 49 47 44 41 40 39 39 38 36 36 38 41
56 55 55 54 54 54 54 53 53 54 54 54 54 54 54 54 55 56 58 60 62 63 64 66 66 66 66 66 65 64 63 60 58 55 53 53 53 51 47 44 42 44 48 54 60 64 66 68 71 73 73 70 68 66 67 67 65 64 63 63 62 61 62 63 64 65 64 58 56 57 55 53 51 50 48 46 43 41 40 40 39 37 37 38 41
57 56 55 55 55 55 54 54 54 54 54 54 54 54 54 55 56 58 59 61 63 64 65 66 66 66 66 66 66 65 64 62 59 56 55 55 53 51 48 45 42 42 46 52 58 63 66 68 71 73 73 70 68 67 66 65 64 62 60 61 63 62 62 63 63 64 65 60 56 56 55 52 52 51 49 47 45 42 41 41 40 38 38 40 41
58 57 56 55 55 55 55 55 54 54 55 55 55 54 54 56 58 59 61 63 64 65 66 66 67 67 67 66 66 66 65 64 61 58 56 56 54 51 48 44 42 41 44 49 55 61 65 68 70 72 73 72 69 68 66 64 62 60 59 61 63 64 64 64 63 64 65 62 57 57 55 52 51 51 49 48 46 44 43 42 40 39 40 41 42
59 57 57 56 56 56 56 55 55 55 55 55 55 54 55 56 59 61 63 64 65 66 66 67 68 68 68 67 67 67 66 65 63 60 58 57 55 52 49 44 41 40 42 47 52 58 62 67 69 70 72 73 71 70 68 65 61 59 59 60 61 63 64 62 62 64 65 63 60 57 55 51 50 50 49 49 47 46 45 44 41 41 41 42 43
59 58 58 57 57 56 56 56 55 55 56 56 55 55 56 58 60 62 64 66 67 67 67 68 69 69 69 69 68 68 67 66 64 61 60 58 55 52 49 45 40 39 40 44 50 55 59 64 69 70 71 72 72 71 69 65 62 61 62 60 58 60 61 60 61 64 65 64 62 59 56 52 50 49 49 49 49 47 47 45 42 41 41 43 44
60 59 58 58 57 57 56 56 56 56 56 56 56 57 58 59 61 63 65 67 68 69 69 69 70 70 71 71 70 69 67 66 64 62 61 59 55 51 48 45 40 38 39 42 47 52 56 61 66 70 70 71 72 72 69 66 64 64 65 62 60 59 59 59 62 63 64 66 64 60 57 54 51 50 50 50 49 49 48 46 43 42 42 43 44
61 60 59 59 58 58 57 56 56 56 56 56 57 59 60 61 63 64 66 68 69 71 71 72 72 72 72 72 71 69 68 66 64 62 61 58 54 50 47 44 40 37 37 40 44 49 53 58 64 68 70 70 71 72 71 69 67 66 67 66 64 62 61 62 63 64 65 66 65 62 59 57 54 52 52 51 51 50 50 48 46 43 41 42 43
63 61 60 60 59 58 58 58 57 57 57 57 59 60 61 63 64 66 68 69 71 73 74 74 75 74 73 73 71 70 68 67 64 62 59 56 52 47 44 42 39 37 36 38 42 46 50 55 61 66 68 69 70 72 72 70 69 69 69 68 66 64 63 63 64 65 66 66 65 64 61 58 56 55 54 54 53 52 52 49 47 44 41 41 43
64 63 61 61 60 59 59 59 58 58 58 59 60 62 63 64 66 68 69 71 73 75 76 76 77 76 75 73 72 70 68 67 64 60 56 53 49 45 42 39 38 36 36 36 39 44 48 52 58 63 66 68 70 72 71 70 70 71 70 69 67 64 63 64 65 65 66 66 65 64 61 59 58 56 56 56 55 54 52 50 48 45 43 42 43
64 64 62 61 60 60 60 60 59 59 60 61 62 63 65 66 68 69 71 74 75 77 78 78 78 77 76 74 72 70 69 67 63 58 53 50 46 43 39 37 36 36 35 35 37 41 45 50 55 61 65 68 70 71 71 70 71 72 71 70 68 65 63 64 65 66 66 66 65 63 60 59 58 58 58 58 57 55 53 51 49 46 44 43 43
65 64 63 62 61 61 61 60 60 60 61 63 64 65 67 68 70 72 74 77 78 79 79 80 80 79 77 75 72 70 69 66 60 54 49 46 43 39 37 35 35 35 35 34 36 39 43 47 53 59 63 67 69 71 71 71 72 72 71 70 69 66 63 64 66 67 67 67 65 62 61 60 60 59 59 60 59 57 55 53 50 47 45 43 42
66 65 64 63 62 62 61 60 61 62 63 65 66 67 68 70 72 75 77 79 80 80 81 81 81 80 78 76 73 70 68 64 56 49 46 43 39 36 34 33 34 34 34 34 35 38 41 45 51 56 61 65 68 70 70 70 71 72 71 70 69 67 65 65 68 69 67 67 66 62 61 62 61 60 61 62 61 58 56 54 51 49 46 43 43
66 65 65 64 63 62 61 61 62 63 65 67 67 68 70 72 74 77 79 81 82 82 83 83 82 81 79 76 73 70 66 60 51 45 43 40 36 34 31 31 32 33 34 34 35 37 39 43 48 54 59 63 65 68 69 70 70 71 70 69 68 67 65 65 68 69 68 67 66 64 63 63 63 62 63 64 62 58 56 55 52 50 47 45 44
67 66 65 64 63 63 62 63 64 65 66 68 69 70 72 74 76 79 81 82 83 84 84 84 83 81 79 77 73 68 63 55 47 42 40 37 33 31 30 30 31 33 34 34 34 35 38 41 46 51 56 60 64 67 69 69 70 70 69 68 66 66 65 65 68 70 70 69 68 66 65 65 65 64 64 64 62 59 57 55 53 51 49 46 44
68 67 66 64 64 64 64 64 65 66 67 69 70 72 74 76 79 81 82 82 84 86 86 85 83 82 79 76 71 65 58 50 44 40 38 34 31 29 29 29 31 33 34 33 32 34 36 39 43 48 53 58 62 65 67 69 70 70 69 67 66 65 65 66 69 71 71 70 69 68 66 66 66 65 64 64 63 60 58 56 54 51 49 47 46
69 68 66 65 65 65 65 65 66 67 69 71 72 74 77 79 81 82 82 83 86 87 86 85 84 81 78 74 69 62 54 46 41 38 36 32 29 28 29 29 31 33 33 32 31 32 35 38 41 46 51 55 60 63 66 68 70 70 69 67 66 65 66 67 69 71 71 71 71 70 67 66 66 65 64 64 63 60 59 57 53 50 49 49 50
69 68 67 65 65 65 66 66 67 68 70 72 75 77 79 81 82 82 83 85 87 88 87 86 83 80 76 71 65 58 49 43 39 36 34 30 28 28 29 30 31 32 32 31 31 32 33 35 38 43 48 53 58 62 64 67 70 70 69 68 67 67 66 66 67 69 71 72 73 72 69 67 66 65 64 65 64 62 59 56 52 51 51 52 53
70 68 67 65 65 66 66 67 69 70 72 74 77 79 81 82 83 83 84 87 88 88 88 86 82 78 73 68 61 53 46 41 37 34 32 29 27 28 29 30 30 30 30 31 31 31 32 33 35 39 45 50 56 60 63 66 69 70 70 69 69 68 68 66 65 67 70 72 73 73 70 68 67 66 66 66 65 63 60 56 53 52 52 53 55
70 69 67 66 66 66 67 69 70 72 74 76 79 80 81 83 83 84 86 89 89 88 87 85 81 76 70 64 57 49 43 38 34 32 30 28 27 28 29 30 29 29 30 30 29 29 29 29 30 34 39 45 52 57 62 65 68 69 69 69 69 69 68 67 65 66 68 70 72 72 70 69 69 68 67 66 65 63 60 57 54 53 52 54 56
70 69 67 66 67 68 69 71 72 73 76 78 80 81 82 83 84 86 88 90 89 87 86 84 80 74 67 60 53 46 41 36 32 30 28 27 27 28 29 30 29 30 30 30 27 26 27 28 28 29 32 38 46 53 59 64 66 68 68 69 69 69 68 67 67 67 66 65 68 71 70 68 68 68 67 66 66 65 63 59 56 54 53 55 56
69 68 67 67 68 69 71 73 74 75 77 79 80 81 82 83 86 88 89 90 88 86 83 81 77 71 64 56 50 44 39 34 30 28 27 27 27 29 31 32 32 32 32 29 27 27 29 30 30 30 30 32 39 47 55 60 65 67 68 68 68 67 67 68 68 69 65 60 62 69 70 68 67 67 67 68 68 67 66 62 59 56 55 55 56
68 68 68 69 70 71 73 75 76 77 78 80 81 82 83 85 88 89 89 89 87 84 80 76 72 67 60 53 46 41 36 31 27 26 26 27 28 31 33 34 34 35 33 30 27 28 32 34 33 32 31 30 33 39 47 55 61 65 66 66 66 65 66 67 68 70 67 59 59 67 70 69 68 67 67 69 70 69 68 66 63 59 57 57 57
69 69 70 71 72 74 76 77 78 79 80 82 83 84 85 87 89 89 88 87 85 82 77 72 67 63 58 51 43 37 32 28 25 24 26 28 30 34 36 36 37 38 36 33 29 28 32 36 36 34 33 31 31 34 41 48 55 60 63 64 65 65 64 64 66 69 68 64 63 67 69 70 70 69 68 69 70 70 69 69 66 62 60 59 58
71 71 72 74 75 77 78 79 80 81 82 84 84 85 86 88 89 89 87 85 82 79 73 68 63 59 55 48 41 34 28 25 24 24 25 28 32 36 38 39 41 41 39 37 33 30 32 36 38 36 34 33 31 31 35 41 47 53 57 60 63 63 63 63 63 65 67 66 65 66 67 68 70 69 67 68 69 70 70 69 67 65 63 62 59
73 74 75 76 78 79 80 81 82 84 84 85 85 87 88 89 88 87 85 81 78 75 70 64 59 56 52 45 37 30 25 23 23 23 25 28 33 38 40 41 44 44 42 40 38 35 33 36 39 40 36 34 32 32 33 36 40 46 52 56 59 60 61 62 63 62 63 64 66 66 65 65 67 69 68 68 69 71 71 71 70 68 67 65 61
75 76 77 79 80 81 82 83 84 85 86 87 87 89 89 88 86 85 81 77 73 71 67 61 55 52 48 41 34 27 23 22 22 23 24 29 35 40 42 44 46 46 45 43 42 40 38 37 40 42 40 36 35 34 34 34 37 41 46 51 54 56 58 60 60 60 59 60 63 66 66 64 65 68 69 69 70 72 73 73 72 71 70 68 64
77 78 80 81 82 83 84 85 86 87 87 88 89 89 88 86 84 82 79 74 70 66 63 56 51 48 45 38 30 26 22 21 22 23 24 29 36 41 44 45 47 48 47 46 46 45 43 41 41 43 42 40 38 37 36 34 34 36 40 45 49 52 53 55 56 56 56 56 59 64 67 67 66 67 69 70 71 72 74 74 74 73 73 71 67
80 81 82 82 83 84 86 87 87 88 88 89 89 87 85 83 82 80 77 72 67 62 58 52 47 44 41 35 28 24 23 21 22 24 25 29 37 43 46 47 49 50 49 48 48 49 48 46 44 44 45 43 40 40 39 36 34 34 35 39 44 48 49 51 53 54 54 53 56 61 67 69 68 68 69 70 71 72 74 75 76 76 75 73 70
82 83 84 85 86 87 87 88 89 88 88 88 85 83 82 82 81 78 73 67 64 60 54 48 43 41 39 34 27 23 23 22 23 24 26 30 36 43 48 50 50 52 52 50 50 51 51 49 47 46 46 45 42 42 42 39 37 36 35 36 40 45 47 48 48 50 52 53 53 56 62 66 68 69 69 70 71 72 73 75 76 76 76 75 73
85 86 86 87 88 89 89 89 89 88 88 86 83 82 83 82 79 74 68 63 62 59 52 45 41 40 38 33 28 24 23 24 24 26 27 30 36 43 50 53 52 53 54 52 51 53 54 53 50 48 47 46 44 43 45 44 41 40 38 37 39 42 45 45 44 45 48 51 53 53 54 58 62 65 68 70 71 72 73 74 76 77 77 77 76
87 88 88 89 89 90 90 90 89 88 87 86 83 82 81 78 73 69 64 60 58 55 49 43 40 39 37 33 29 25 24 25 26 27 28 31 36 42 50 55 55 54 55 54 53 54 55 55 52 49 48 47 45 45 46 47 46 44 42 42 42 43 45 46 46 44 45 48 52 54 53 51 50 51 55 60 66 71 73 74 75 77 78 78 78
89 90 90 91 91 91 91 91 90 88 87 85 83 79 75 70 68 65 61 56 53 51 47 41 38 37 36 34 30 27 26 26 27 27 29 32 36 41 48 56 58 56 54 54 54 55 56 57 55 52 50 50 48 47 47 49 50 48 47 47 47 47 48 49 49 49 47 47 49 54 56 52 46 43 44 49 56 66 72 75 76 77 77 78 79
90 91 92 92 92 91 91 91 89 88 86 82 77 72 68 66 65 63 59 53 47 44 43 39 37 36 35 34 32 30 27 27 28 28 29 32 37 41 46 53 59 59 55 54 55 56 57 58 57 55 54 53 52 50 49 50 52 52 51 51 50 50 51 52 53 53 52 51 50 54 58 59 55 52 53 55 57 62 67 72 76 78 78 78 78
92 92 92 93 92 92 91 90 88 87 82 76 70 68 67 65 60 56 50 44 39 39 39 38 36 36 35 34 34 32 30 29 28 29 30 32 36 41 45 50 56 60 59 57 56 57 58 59 60 59 57 56 56 54 51 51 54 55 55 54 54 53 53 53 54 55 56 55 54 55 59 63 65 65 66 67 66 65 65 67 71 74 76 77 77
93 92 92 92 92 91 90 89 86 83 79 74 71 69 64 57 51 46 42 38 38 40 41 39 37 38 37 36 35 34 33 31 30 29 30 32 35 41 46 49 53 59 62 61 59 58 59 61 62 63 61 59 60 58 55 53 55 57 58 57 57 56 56 56 56 57 57 57 57 56 57 61 66 70 72 73 72 71 70 69 69 71 73 74 76
93 93 92 92 91 90 88 86 84 80 77 74 70 65 58 52 50 49 47 45 44 43 40 38 39 39 38 37 36 36 34 33 32 31 31 33 35 39 45 50 52 56 61 65 64 61 60 62 64 65 64 63 63 63 60 56 56 59 61 61 60 60 60 59 59 59 59 58 58 58 58 58 61 65 69 72 72 73 73 73 72 72 73 74 75
92 92 91 90 89 87 86 84 81 78 75 71 67 62 58 55 53 51 49 45 42 40 38 38 40 41 40 38 38 37 36 35 34 33 32 33 35 38 43 49 53 55 59 65 68 66 63 63 66 68 67 67 67 67 64 60 59 61 63 63 62 62 62 62 61 61 60 59 58 58 59 60 60 61 62 64 67 69 71 72 72 73 74 76 76
91 90 89 88 86 84 83 80 77 74 70 67 64 61 58 55 52 49 46 43 39 37 37 38 40 41 40 39 39 39 38 37 36 35 34 34 35 38 41 46 53 57 59 62 68 71 68 66 67 69 70 70 70 71 69 65 62 64 67 67 65 64 64 63 62 62 61 59 57 57 58 60 62 61 60 59 60 62 64 67 69 70 72 75 77
88 87 86 84 83 81 79 76 74 70 67 64 61 57 54 52 49 45 43 42 39 36 35 37 39 42 41 41 41 41 40 39 39 38 37 37 36 38 41 44 50 57 60 62 65 71 73 71 69 70 73 73 73 74 74 70 66 67 70 72 70 68 67 65 64 63 63 62 61 60 60 61 62 63 62 61 61 61 62 63 65 67 68 69 72
85 84 82 81 79 76 74 72 69 67 64 61 58 54 50 49 46 42 40 40 39 36 35 35 38 41 43 44 45 45 44 43 42 40 40 40 40 39 41 44 47 53 60 63 65 68 73 75 74 72 74 76 77 77 77 75 71 69 72 75 75 73 71 69 68 67 67 66 66 66 65 65 65 66 66 66 65 65 65 67 68 68 68 68 69
82 80 78 76 74 71 69 67 65 63 61 58 55 51 47 45 43 40 38 37 36 36 36 36 36 39 42 45 47 48 48 49 48 45 43 43 43 43 43 45 47 50 56 62 66 68 71 75 77 77 76 78 80 80 80 79 76 74 74 77 79 77 75 73 72 72 72 71 71 70 70 69 70 70 70 71 71 71 71 73 74 74 74 74 74
77 75 73 71 68 66 65 64 62 60 57 54 52 50 46 42 40 37 35 34 34 35 36 36 36 38 41 45 47 48 50 51 51 48 47 46 47 47 46 46 48 50 53 59 65 69 71 73 77 80 80 80 81 83 84 83 81 78 77 79 81 81 79 77 76 76 76 75 75 74 73 73 74 75 75 75 75 76 77 78 79 79 80 80 80
71 69 67 66 64 62 61 59 58 56 54 51 50 48 45 41 37 35 33 33 33 33 34 36 37 38 41 44 46 48 51 52 51 51 50 50 50 50 50 49 49 50 52 55 61 67 72 74 75 78 81 83 84 85 86 87 86 83 81 81 83 84 84 82 81 80 80 79 79 78 77 76 77 79 80 79 79 79 81 82 83 83 83 83 83
65 64 62 61 60 58 57 55 53 52 51 49 48 46 43 39 36 34 33 32 32 33 34 35 37 39 41 43 45 47 49 50 51 52 53 53 54 53 52 51 50 51 52 54 57 62 68 74 76 77 79 83 85 87 88 89 90 88 86 85 85 86 88 87 86 84 84 84 83 82 82 80 79 81 83 84 84 83 83 84 84 85 87 87 87
60 58 57 56 55 54 52 51 50 49 49 48 46 43 40 37 36 35 34 33 33 34 35 36 37 39 41 42 44 45 46 48 50 51 52 53 54 54 53 53 52 52 52 53 56 59 63 69 75 78 80 81 84 87 89 91 92 92 91 89 88 88 90 91 91 90 89 88 88 87 87 86 84 83 84 85 86 87 87 87 87 87 87 88 89
54 53 52 51 50 49 49 48 48 48 47 46 44 41 38 37 36 35 34 34 34 35 36 37 38 39 40 42 43 45 46 46 48 49 50 50 51 51 51 51 52 53 53 52 54 57 61 65 70 75 80 82 83 85 88 91 93 95 95 94 93 91 91 92 94 95 94 93 92 91 91 91 91 89 88 88 88 89 89 90 91 91 91 90 89
48 47 47 46 46 46 47 47 47 46 45 43 41 40 39 38 37 36 35 35 35 36 37 38 39 40 41 42 42 43 43 44 44 45 46 46 47 47 48 49 50 52 53 53 52 54 59 64 67 70 75 80 83 85 87 90 93 95 97 98 98 96 95 94 96 97 98 98 97 96 95 95 95 95 94 94 93 92 92 93 93 94 94 94 92
44 44 44 44 45 45 46 46 45 44 43 41 40 39 38 38 37 36 36 35 36 36 37 38 39 39 40 40 41 41 42 42 42 42 42 42 43 43 44 45 47 49 51 53 53 53 56 61 66 69 71 75 80 84 87 89 91 94 97 99 100 101 100 99 98 99 100 102 102 101 100 99 99 99 99 99 98 98 97 97 97 97 97 97 97
42 42 43 44 44 44 43 43 42 42 41 40 38 37 37 36 36 35 35 35 36 36 36 37 37 38 38 39 39 40 40 41 41 41 41 41 41 41 42 42 44 46 48 51 53 53 54 57 63 68 71 72 75 79 84 88 91 93 95 98 101 103 104 104 103 103 103 104 105 106 105 105 104 103 103 103 103 103 102 101 102 102 102 102 102
42 42 42 42 41 41 41 40 39 38 37 36 36 35 35 34 34 34 34 34 35 35 36 36 36 36 37 37 38 39 39 39 40 40 40 40 41 41 42 42 43 44 46 48 50 52 53 55 58 63 68 71 73 75 78 83 88 92 94 97 99 102 104 106 107 108 107 107 107 108 109 109 109 109 107 107 107 107 107 106 106 106 106 106 107
Wind_Direction
311 310 309 308 308 307 307 308 308 308 308 308 307 308 308 309 310 310 311 311 312 312 312 312 311 312 312 311 311 310 310 310 310 310 309 307 303 299 291 278 262 251 244 240 236 231 227 223 221 222 224 225 226 226 225 223 222 222 224 224 224 225 226 226 227 230 230 229 229 228 227 227 229 231 232 232 232 233 236 241 243 240 234 228 224
312 311 310 309 308 308 308 308 308 308 307 307 307 307 308 308 309 310 310 311 312 312 312 312 311 312 312 312 311 311 311 310 311 311 309 307 304 300 293 282 267 253 244 240 236 233 229 224 222 223 225 225 225 225 225 223 220 220 221 221 221 221 224 225 225 227 229 228 227 227 226 227 228 230 231 232 232 232 235 239 241 238 232 226 224
313 312 311 309 308 308 307 307 307 307 306 306 306 307 308 308 309 309 310 310 311 312 312 311 311 311 312 312 312 312 312 312 312 312 310 307 305 301 294 284 271 257 247 240 236 234 231 226 223 224 225 225 223 223 224 222 220 219 219 219 220 220 222 223 223 225 227 226 225 226 225 225 227 229 229 231 232 232 234 236 237 236 230 226 224
313 313 311 309 308 307 307 307 306 306 305 305 306 306 307 308 308 309 310 310 311 312 312 312 312 312 312 313 313 313 313 312 312 312 310 308 305 301 295 285 274 262 251 243 237 233 231 227 225 223 224 224 223 221 221 220 218 218 218 219 219 220 221 221 222 224 225 224 223 224 224 223 225 227 228 229 231 231 232 234 234 233 229 226 225
314 313 311 309 308 307 306 306 305 305 304 304 305 306 307 307 308 309 310 310 311 312 312 312 312 313 313 314 314 314 313 313 313 313 311 308 306 302 296 286 276 265 255 246 239 234 230 228 226 223 222 223 222 221 221 220 217 216 218 219 218 220 221 219 220 222 223 223 222 222 222 221 223 226 227 228 229 229 230 231 232 231 228 226 225
314 312 310 309 307 306 306 305 304 304 303 303 304 305 306 307 307 308 310 311 312 312 312 313 313 314 315 315 315 315 313 313 313 313 311 308 305 302 296 288 278 267 257 248 241 236 231 227 225 223 222 221 220 221 221 220 217 216 218 218 217 221 221 218 219 221 221 221 221 220 221 220 221 224 226 226 227 228 229 230 230 230 228 227 226
313 312 310 309 307 306 305 305 304 303 303 303 304 305 305 306 307 308 310 311 312 313 313 314 315 316 316 316 316 315 313 313 313 313 310 307 304 301 295 288 279 269 259 250 242 236 231 226 223 222 221 220 219 220 220 219 217 216 217 218 218 222 222 218 218 220 219 220 220 219 220 220 221 224 226 226 226 226 228 228 229 229 228 228 227
313 312 310 308 307 306 305 304 304 303 303 303 303 304 304 305 307 309 310 312 313 314 316 316 317 317 316 316 315 314 314 313 313 313 309 305 303 299 293 287 280 270 261 251 243 237 231 226 222 220 220 219 217 218 218 217 216 216 216 217 219 221 221 217 217 219 219 219 220 220 220 221 222 223 224 225 224 225 226 226 228 228 227 228 228
313 312 310 308 307 306 305 304 303 303 303 303 302 303 304 305 307 309 311 314 315 317 317 317 317 317 316 316 315 315 314 313 313 312 307 303 301 297 291 286 279 271 262 252 243 237 232 226 222 220 219 218 216 216 216 214 214 214 215 216 217 220 220 217 216 218 219 219 220 220 221 221 222 221 221 222 223 224 225 225 226 226 224 226 227
312 311 309 308 307 306 305 304 303 303 302 302 302 303 304 306 308 310 313 315 317 318 318 318 317 317 316 316 315 315 314 313 312 310 305 300 298 294 289 283 277 269 261 251 243 236 231 227 223 220 218 216 216 216 215 213 212 213 215 215 215 217 219 217 215 217 218 219 219 220 220 219 219 218 219 220 221 223 224 224 225 225 223 223 225
311 310 309 308 307 306 304 303 302 302 302 302 303 304 305 306 308 311 315 317 318 318 318 317 317 317 317 316 316 316 314 313 312 308 302 298 295 292 287 280 273 267 259 250 242 236 231 227 223 220 217 215 215 215 214 212 211 212 215 215 214 215 217 217 216 216 217 218 219 219 218 216 216 216 218 219 220 222 223 223 224 225 223 223 224
311 310 309 308 307 305 304 303 302 302 303 303 304 305 306 308 311 314 316 317 317 317 317 317 317 317 317 317 317 316 314 312 310 305 299 295 293 289 284 277 270 264 257 249 242 236 231 226 222 220 217 215 214 214 214 211 210 211 213 215 215 214 215 216 215 214 216 217 217 217 217 215 214 215 216 218 219 220 221 222 223 224 223 223 224
310 309 308 307 306 305 304 303 303 304 304 304 305 306 308 310 313 315 317 317 317 317 317 318 318 318 318 318 317 316 314 311 309 302 296 293 290 286 280 273 266 260 253 247 241 236 231 226 222 220 218 215 213 214 213 212 210 210 211 213 214 215 215 215 214 213 214 216 216 216 216 215 213 214 216 218 219 220 221 222 222 223 223 223 224
310 308 307 306 305 305 305 305 304 305 305 305 306 308 310 312 314 315 316 316 317 317 317 318 318 318 319 318 317 316 313 310 306 300 294 291 287 282 275 268 261 254 249 244 239 235 231 225 221 220 218 216 213 212 213 212 211 211 211 212 214 215 216 215 214 213 214 214 214 215 216 215 214 213 215 218 219 220 220 221 222 223 223 223 224
308 307 306 306 306 306 305 305 305 305 305 306 308 309 311 313 314 315 315 316 317 317 318 318 319 319 319 318 317 315 312 309 304 297 292 288 284 277 269 261 254 248 244 242 238 235 231 226 221 220 218 216 213 211 211 211 211 211 211 212 213 215 216 215 213 213 213 213 213 214 215 215 214 213 214 217 220 220 220 220 221 222 223 224 225
307 306 306 306 306 306 305 305 305 306 307 308 309 311 312 313 314 314 315 316 317 317 318 318 319 319 319 318 316 314 311 307 301 294 289 285 279 271 261 253 246 242 241 240 237 235 232 226 221 219 218 216 213 211 210 210 211 211 211 212 213 214 215 214 213 213 213 212 212 214 215 215 215 214 213 216 220 221 220 220 220 222 223 225 226
306 306 306 306 306 305 305 305 306 307 308 309 310 311 312 313 314 314 315 316 317 318 318 319 319 319 319 317 315 313 310 304 299 292 287 282 273 263 254 246 239 236 236 235 232 231 231 227 221 219 217 215 213 211 210 210 210 211 211 211 212 214 215 215 214 214 213 213 213 215 216 216 216 215 214 216 219 221 221 220 220 221 222 224 226
305 305 305 305 305 305 305 306 307 308 309 310 311 312 313 313 314 315 316 317 318 318 318 319 319 319 318 316 314 312 308 303 297 290 284 277 266 255 248 240 234 232 232 230 227 227 229 227 222 218 216 214 212 210 210 210 211 211 211 211 212 214 215 216 215 214 214 214 215 216 217 217 217 215 214 215 218 221 222 221 219 219 221 224 226
304 304 304 304 304 305 305 307 308 309 310 311 311 312 313 313 314 315 316 317 318 318 318 318 319 318 317 315 314 311 307 302 295 287 279 271 259 248 240 235 230 227 226 224 222 223 226 225 221 218 216 214 212 210 210 210 211 211 211 211 212 214 216 216 215 214 214 215 216 218 218 218 217 215 214 215 217 219 222 221 219 219 220 223 226
303 303 303 304 304 305 306 307 308 309 310 311 312 313 313 313 314 315 316 317 318 318 318 318 319 318 316 315 313 311 306 300 291 282 273 263 251 241 233 228 223 218 215 214 215 218 220 218 216 215 214 213 212 211 210 210 211 212 211 211 213 214 216 216 215 214 215 215 217 218 218 218 217 216 215 215 216 218 221 222 221 218 219 222 226
302 303 304 304 305 306 307 308 308 309 311 311 312 313 313 313 314 316 317 317 318 318 318 318 318 318 316 315 313 310 305 297 287 276 266 255 243 233 225 219 212 206 204 205 207 210 209 204 202 205 208 211 212 211 211 211 212 212 212 212 213 214 215 216 215 215 215 216 218 218 218 218 217 217 216 216 216 218 220 223 222 219 219 222 225
302 303 304 305 306 306 307 307 308 310 311 311 311 312 312 313 314 316 316 317 317 318 318 317 317 316 316 315 313 309 303 294 283 269 257 246 236 225 217 211 203 198 197 198 200 200 197 193 193 194 198 205 211 212 212 212 212 213 213 213 214 214 215 216 216 216 215 217 220 220 218 218 218 218 218 217 216 217 219 222 223 221 221 223 225
303 303 304 305 306 306 307 308 309 310 310 310 311 312 312 313 314 315 316 316 317 317 317 316 315 315 315 314 311 307 300 291 279 264 249 239 228 218 212 206 198 193 192 192 194 196 194 191 191 191 192 198 207 212 213 213 213 213 214 214 214 215 215 215 216 217 216 218 221 220 219 218 219 219 219 218 217 217 218 220 222 221 222 224 225
303 304 304 305 305 306 307 308 309 309 310 310 311 312 312 313 314 315 315 316 316 316 316 315 314 313 313 312 309 303 295 285 274 258 244 234 222 213 209 203 195 190 189 187 188 195 196 192 189 188 190 194 201 210 213 213 213 214 214 214 214 215 215 215 216 217 216 217 220 220 220 220 220 220 221 220 218 217 218 220 221 221 222 225 225
303 304 304 305 306 307 307 308 308 309 309 310 311 311 312 313 314 314 315 316 316 316 315 314 313 311 310 309 306 300 290 279 268 254 241 230 219 211 207 201 194 190 187 184 186 194 199 195 189 187 189 192 197 206 211 212 213 213 213 214 214 214 215 214 215 216 216 217 218 219 220 222 222 222 222 222 220 218 219 220 221 221 223 225 226
302 303 304 304 305 306 306 307 307 308 309 310 311 311 312 312 313 314 315 316 316 315 314 313 311 308 307 307 303 296 286 274 264 252 240 228 217 210 206 200 194 191 187 184 185 191 198 197 191 187 189 192 195 201 206 209 211 211 211 212 213 213 213 214 214 215 217 218 218 217 217 220 222 222 223 222 221 219 219 220 221 221 223 225 226
301 302 303 304 305 305 305 306 307 308 309 310 310 311 311 312 313 314 314 315 314 313 313 312 309 305 305 304 300 293 283 272 262 252 240 227 217 210 205 200 196 191 187 186 187 190 194 197 193 190 190 193 195 197 201 204 208 210 210 210 210 211 212 212 213 215 217 219 218 216 215 217 219 221 222 223 222 220 219 219 220 221 223 224 225
301 301 302 303 304 304 305 306 307 308 309 309 310 310 311 312 313 313 313 314 313 312 311 310 306 302 302 301 297 289 281 272 261 252 240 226 216 210 205 201 197 192 189 189 191 191 192 195 196 195 194 194 196 197 196 198 203 208 209 208 208 209 209 210 211 213 215 217 219 217 215 216 218 219 220 222 223 221 219 220 221 221 223 224 224
300 301 302 302 303 303 304 305 306 307 307 308 309 310 311 311 312 312 313 312 311 310 310 308 304 300 299 298 294 287 280 273 262 253 240 225 215 210 204 201 198 194 192 193 194 193 192 193 196 199 198 196 198 197 193 192 197 202 205 207 205 205 206 207 209 211 212 214 218 218 217 218 220 221 220 221 223 222 220 220 221 222 223 223 224
299 300 301 301 302 302 303 304 305 306 307 308 309 310 310 310 311 311 311 310 309 308 308 306 302 299 296 295 292 285 279 273 263 254 241 226 216 210 204 201 200 197 195 196 197 195 193 193 195 200 201 199 200 198 193 189 192 195 198 201 201 201 203 205 207 211 212 212 215 219 220 221 223 224 224 223 224 224 223 222 222 223 224 224 224
299 299 300 300 301 302 303 303 304 305 306 307 308 308 308 309 309 309 309 308 306 305 305 303 300 296 293 291 289 284 277 271 263 254 242 228 218 211 205 202 202 200 198 199 200 198 195 194 195 199 201 200 200 200 196 190 188 189 192 196 198 199 200 202 205 210 213 213 214 216 219 221 223 225 227 227 227 227 227 225 225 225 225 225 225
298 298 299 300 301 301 302 303 304 304 305 306 307 307 307 307 307 308 308 307 303 301 301 300 296 291 288 287 286 282 276 270 262 254 244 231 220 213 207 203 203 202 201 202 202 200 198 197 196 198 200 199 198 200 199 194 190 189 192 195 198 200 200 200 201 205 209 213 215 214 215 217 220 224 228 230 231 231 230 229 228 227 227 226 226
297 298 298 299 300 301 301 302 303 304 305 306 306 307 306 306 307 307 306 304 300 296 296 295 290 285 282 282 281 279 275 270 263 256 246 234 224 217 210 206 204 203 202 203 205 203 201 200 198 198 199 199 198 200 202 199 194 193 195 198 201 203 202 201 201 202 204 208 213 214 212 209 209 214 220 225 229 232 231 230 230 229 229 229 228
296 297 298 299 299 300 300 301 302 303 304 305 305 305 305 305 306 305 302 300 296 292 291 289 283 278 276 275 276 276 273 269 264 258 249 238 228 221 214 209 207 205 204 204 206 206 205 202 200 199 200 201 199 200 204 204 200 198 199 201 203 205 206 204 204 204 205 206 209 212 211 206 203 204 206 210 220 228 230 230 230 230 230 230 231
295 296 297 298 298 299 299 300 301 302 303 303 303 304 304 305 304 302 299 297 292 287 285 283 277 272 270 269 270 272 271 269 265 258 252 243 232 224 219 214 210 208 206 205 206 208 208 205 202 201 202 203 201 201 204 208 206 202 202 204 206 207 208 208 208 208 208 209 210 212 212 209 205 204 205 208 216 223 226 227 228 229 229 230 231
295 296 296 297 297 298 299 300 301 302 302 302 303 304 304 303 300 296 292 288 283 279 277 274 269 266 265 264 265 267 268 267 264 259 253 247 238 229 223 219 214 211 208 206 206 207 209 208 205 203 204 205 203 202 204 208 210 207 205 206 208 209 209 211 212 212 212 213 214 215 215 214 212 211 212 215 219 223 225 227 228 229 229 230 231
294 295 295 296 297 298 299 300 300 301 302 302 303 303 302 298 295 292 288 283 280 276 272 265 260 259 260 260 260 261 262 262 262 260 254 249 243 235 227 222 219 215 211 209 208 207 209 210 208 205 205 206 205 204 205 208 211 210 208 207 209 210 210 212 213 214 214 215 216 217 217 217 217 217 218 220 222 225 226 228 230 231 231 231 231
294 294 295 296 297 298 298 299 300 300 301 302 302 302 300 297 294 292 289 285 280 274 266 257 253 253 255 256 256 255 256 258 259 258 255 250 246 240 232 226 223 220 215 212 210 209 209 210 210 208 207 207 206 206 207 209 210 211 211 210 210 210 210 211 212 214 214 214 215 217 218 217 217 219 221 223 224 226 227 227 228 230 231 232 231
293 294 295 295 296 297 298 298 299 300 300 301 301 300 298 296 294 292 289 285 278 269 261 253 249 249 250 250 250 251 253 255 255 255 254 252 247 243 238 231 226 223 220 217 214 211 210 211 211 210 209 208 207 208 210 210 210 211 212 212 212 212 212 211 211 212 213 213 213 215 217 218 217 217 219 222 223 224 225 226 226 228 230 232 233
293 293 294 295 295 296 297 297 298 299 299 299 299 298 296 294 292 290 286 282 276 269 259 251 247 246 245 244 244 246 249 252 253 253 253 252 249 245 242 236 230 226 223 221 218 215 213 212 212 212 210 209 209 210 212 212 212 211 212 213 214 214 214 214 213 212 212 213 213 214 218 220 219 216 215 217 220 222 223 223 224 225 227 230 233
292 292 293 294 294 295 296 296 297 298 298 298 297 296 294 292 290 287 281 278 274 269 261 252 246 244 243 242 242 244 248 251 252 252 252 252 251 247 244 240 235 230 226 224 221 219 216 214 214 214 212 211 210 211 213 214 213 212 211 213 214 215 215 216 215 214 213 213 214 216 218 221 223 221 217 215 217 220 221 222 222 223 224 226 229
291 292 292 293 294 294 295 295 296 296 296 296 295 294 292 290 287 283 278 274 270 266 261 255 248 242 241 240 242 245 248 250 251 252 251 250 250 249 246 242 239 235 230 226 224 222 220 217 216 216 215 213 211 211 213 214 214 213 212 212 213 215 215 215 215 214 214 215 216 217 219 221 222 224 223 220 218 218 220 221 222 224 225 227 228
290 291 292 292 293 294 294 294 295 295 295 294 293 292 291 288 284 280 276 272 267 263 260 257 251 244 240 239 241 243 246 248 249 250 249 248 248 248 247 245 242 239 235 230 227 225 223 221 219 218 218 216 214 213 213 215 215 215 213 212 213 214 215 215 215 214 215 216 217 218 219 220 221 222 224 224 223 221 221 221 223 225 227 228 229
290 291 291 292 293 293 293 293 293 292 292 292 292 292 291 288 283 279 276 271 266 262 259 256 253 248 244 242 243 244 245 246 247 247 247 247 247 247 247 246 244 242 239 235 231 228 226 224 223 221 220 219 218 216 215 215 216 217 216 214 214 214 215 216 216 216 216 217 218 218 219 220 220 221 222 224 226 226 225 225 225 226 228 230 231
290 290 291 291 291 291 291 290 290 289 290 290 291 290 289 286 283 281 278 273 268 263 259 255 253 252 250 249 249 249 249 248 247 247 247 247 248 249 248 248 247 245 242 239 236 232 229 227 226 224 222 222 221 220 218 217 217 218 218 217 216 216 216 217 217 217 217 218 219 220 220 220 220 220 221 223 225 227 228 228 229 229 230 232 233
289 289 289 289 289 288 288 287 287 288 288 289 289 288 286 284 283 282 278 274 270 265 262 259 257 255 254 253 253 253 253 253 252 251 251 250 251 251 250 249 248 247 245 242 240 237 233 230 228 227 226 224 223 222 221 220 219 219 220 220 219 218 218 218 219 219 219 219 220 220 221 222 222 222 222 223 224 226 227 229 230 231 232 233 234
288 287 287 286 286 286 285 286 286 287 288 288 287 285 284 283 282 281 278 274 271 268 265 263 261 259 258 257 257 257 257 257 256 256 256 255 254 254 252 250 248 246 245 244 242 239 237 234 232 230 228 227 226 225 224 223 222 221 221 222 222 221 220 220 220 220 221 221 221 222 222 223 224 224 225 225 225 226 227 228 229 230 231 232 234
286 285 284 284 284 284 285 286 286 286 286 285 285 284 283 283 281 280 277 274 272 270 268 266 264 262 261 261 261 261 261 260 260 259 258 258 258 256 255 252 249 246 245 245 243 241 238 237 235 233 231 230 229 227 226 225 225 224 223 223 224 223 223 222 222 222 222 223 223 224 224 224 225 225 226 227 227 228 228 228 229 229 230 231 232
284 284 283 284 284 284 284 285 285 285 285 284 283 283 282 281 280 279 277 275 273 271 269 268 266 265 264 264 263 263 263 262 262 261 260 259 258 257 256 254 251 248 246 245 245 243 240 237 236 235 234 233 231 230 229 227 227 226 226 225 225 225 225 225 224 224 224 224 224 225 226 226 227 227 227 228 229 230 230 231 231 231 231 231 232
284 284 284 284 284 284 284 284 284 284 284 284 283 282 280 279 279 278 277 276 275 273 272 271 270 268 267 266 265 264 264 263 262 261 260 259 258 257 256 255 253 252 249 247 246 245 243 240 237 236 235 235 234 233 232 231 229 228 228 227 227 227 227 227 226 226 226 226 226 226 227 228 228 229 229 229 229 230 231 232 233 233 233 233 234
284 284 283 283 283 284 284 284 284 284 283 283 282 281 280 280 279 279 278 277 277 276 275 274 273 272 270 269 267 266 265 265 264 263 262 261 259 257 256 254 253 253 252 250 249 247 246 244 241 239 237 237 236 235 234 233 233 231 230 229 229 229 228 228 228 228 228 228 228 228 228 228 229 230 231 231 231 231 232 233 234 234 235 235 236
Height
10853 10850 10847 10844 10841 10838 10835 10832 10829 10826 10823 10820 10817 10814 10811 10809 10806 10804 10800 10797 10793 10790 10786 10782 10777 10774 10770 10766 10763 10760 10757 10754 10750 10747 10744 10740 10736 10734 10732 10731 10731 10732 10734 10735 10737 10741 10746 10751 10755 10757 10763 10768 10773 10779 10784 10789 10794 10800 10805 10811 10817 10821 10825 10830 10833 10833 10837 10843 10847 10850 10854 10858 10861 10864 10866 10869 10871 10873 10875 10876 10877 10879 10881 10882 10885
10847 10844 10841 10838 10835 10832 10829 10826 10823 10820 10816 10813 10811 10808 10805 10802 10800 10797 10794 10790 10787 10783 10779 10775 10771 10767 10763 10758 10754 10751 10747 10744 10741 10738 10734 10730 10726 10724 10721 10720 10720 10721 10723 10724 10726 10729 10734 10740 10744 10747 10752 10757 10764 10771 10775 10780 10785 10791 10797 10804 10809 10814 10818 10822 10825 10826 10830 10837 10841 10844 10848 10853 10856 10858 10861 10863 10866 10869 10871 10872 10873 10875 10877 10879 10880
10841 10838 10835 10832 10828 10826 10823 10820 10817 10814 10810 10807 10805 10802 10799 10796 10793 10790 10788 10784 10781 10777 10773 10769 10764 10760 10756 10751 10746 10742 10737 10734 10731 10728 10724 10720 10716 10714 10711 10710 10709 10710 10712 10714 10716 10718 10723 10729 10734 10738 10742 10748 10755 10762 10766 10772 10777 10783 10790 10796 10801 10806 10810 10814 10818 10820 10824 10830 10835 10839 10843 10847 10850 10852 10856 10858 10860 10864 10866 10867 10869 10871 10873 10874 10876
10835 10832 10829 10826 10823 10819 10817 10814 10811 10808 10804 10801 10799 10797 10794 10790 10786 10783 10780 10777 10774 10770 10766 10761 10757 10752 10748 10744 10738 10733 10728 10723 10720 10718 10714 10709 10706 10703 10701 10700 10699 10700 10701 10703 10706 10708 10712 10717 10723 10728 10733 10739 10747 10753 10757 10763 10769 10775 10782 10787 10792 10797 10800 10805 10811 10813 10817 10823 10829 10833 10837 10841 10844 10847 10850 10853 10855 10859 10861 10863 10865 10866 10868 10870 10873
10830 10827 10823 10820 10817 10813 10810 10807 10805 10801 10798 10795 10793 10790 10788 10784 10780 10776 10773 10770 10767 10763 10759 10754 10749 10744 10740 10735 10730 10725 10719 10714 10710 10708 10704 10699 10696 10693 10691 10690 10690 10690 10691 10693 10695 10698 10702 10707 10712 10719 10724 10730 10738 10744 10749 10755 10762 10769 10773 10778 10785 10789 10793 10799 10804 10806 10811 10817 10822 10827 10831 10836 10839 10841 10845 10847 10850 10853 10855 10857 10860 10862 10864 10866 10868
10824 10821 10817 10814 10811 10808 10804 10801 10798 10795 10792 10789 10786 10784 10781 10778 10774 10770 10766 10762 10759 10755 10751 10746 10741 10736 10731 10726 10721 10716 10711 10705 10701 10698 10694 10690 10687 10684 10681 10680 10680 10681 10682 10683 10685 10688 10692 10697 10702 10709 10716 10722 10729 10735 10742 10749 10756 10762 10766 10772 10780 10784 10788 10795 10798 10800 10805 10810 10815 10821 10826 10830 10833 10836 10839 10842 10844 10847 10850 10852 10855 10857 10860 10862 10864
10819 10815 10812 10808 10805 10802 10799 10795 10792 10789 10786 10783 10780 10777 10774 10771 10768 10764 10759 10754 10750 10746 10742 10737 10732 10727 10722 10716 10712 10707 10702 10697 10692 10689 10684 10680 10677 10675 10672 10670 10670 10672 10673 10674 10676 10678 10683 10688 10692 10698 10706 10714 10720 10726 10734 10742 10749 10754 10759 10766 10773 10777 10782 10787 10790 10793 10798 10802 10807 10814 10819 10823 10827 10831 10834 10837 10839 10843 10845 10848 10850 10852 10856 10858 10860
10813 10809 10806 10802 10799 10796 10792 10789 10785 10782 10780 10777 10773 10769 10766 10763 10760 10756 10752 10747 10742 10736 10732 10728 10723 10718 10713 10708 10703 10698 10693 10688 10684 10680 10675 10671 10668 10666 10663 10662 10662 10663 10664 10665 10667 10670 10674 10679 10684 10689 10696 10704 10711 10718 10725 10733 10739 10745 10752 10758 10764 10770 10774 10778 10782 10786 10790 10795 10801 10807 10812 10817 10820 10824 10828 10832 10835 10837 10839 10842 10845 10848 10852 10856 10858
10806 10803 10799 10795 10792 10789 10786 10782 10779 10776 10773 10770 10766 10762 10759 10756 10752 10748 10743 10739 10733 10728 10723 10718 10713 10708 10704 10699 10694 10688 10683 10679 10675 10671 10666 10662 10660 10658 10655 10654 10654 10655 10656 10658 10660 10662 10666 10671 10676 10681 10688 10696 10703 10709 10715 10722 10729 10736 10743 10749 10756 10762 10766 10770 10775 10778 10782 10788 10794 10800 10805 10810 10814 10818 10822 10826 10828 10830 10833 10837 10840 10844 10848 10852 10854
10799 10796 10792 10789 10786 10783 10779 10776 10773 10770 10766 10762 10759 10755 10752 10748 10744 10739 10734 10730 10725 10720 10714 10709 10704 10699 10694 10689 10685 10679 10674 10669 10666 10663 10658 10653 10651 10650 10648 10646 10646 10647 10649 10651 10653 10655 10659 10664 10669 10674 10681 10688 10695 10701 10708 10715 10722 10727 10733 10739 10747 10754 10758 10763 10768 10772 10777 10782 10787 10793 10799 10804 10807 10811 10815 10819 10821 10824 10828 10833 10836 10839 10843 10847 10849
10792 10789 10785 10782 10779 10776 10772 10769 10766 10762 10758 10754 10750 10747 10743 10739 10734 10730 10725 10720 10715 10711 10706 10700 10695 10690 10685 10680 10675 10670 10665 10660 10657 10654 10649 10645 10643 10642 10641 10639 10639 10640 10642 10644 10646 10649 10652 10657 10661 10667 10673 10680 10688 10693 10700 10708 10715 10720 10726 10732 10739 10745 10751 10757 10762 10766 10771 10776 10780 10786 10792 10797 10800 10804 10809 10812 10815 10819 10823 10827 10831 10835 10839 10842 10844
10785 10781 10778 10775 10772 10769 10766 10763 10759 10754 10750 10746 10742 10738 10734 10730 10725 10720 10715 10710 10706 10701 10696 10691 10685 10680 10675 10670 10665 10660 10655 10651 10648 10644 10640 10637 10635 10634 10633 10633 10633 10634 10636 10638 10640 10643 10646 10650 10654 10659 10666 10673 10679 10685 10692 10700 10706 10712 10719 10725 10732 10738 10744 10749 10754 10759 10765 10768 10773 10780 10785 10789 10793 10798 10802 10806 10809 10813 10817 10822 10826 10830 10833 10836 10839
10778 10774 10771 10768 10765 10762 10759 10755 10751 10746 10742 10738 10734 10730 10725 10720 10715 10711 10706 10701 10696 10691 10686 10681 10676 10670 10665 10660 10655 10651 10646 10642 10639 10635 10632 10630 10628 10627 10626 10626 10627 10628 10630 10632 10634 10637 10640 10644 10648 10653 10659 10666 10673 10679 10686 10693 10699 10705 10711 10718 10725 10731 10737 10741 10745 10751 10756 10760 10767 10773 10777 10781 10787 10792 10795 10798 10803 10808 10813 10817 10821 10825 10828 10831 10833
10771 10767 10764 10761 10758 10754 10751 10747 10743 10739 10734 10730 10726 10722 10717 10712 10708 10703 10698 10693 10687 10682 10676 10671 10666 10660 10655 10649 10645 10641 10636 10633 10630 10627 10624 10622 10621 10620 10620 10620 10621 10623 10624 10626 10629 10632 10635 10638 10642 10647 10652 10659 10667 10674 10680 10687 10693 10699 10705 10711 10717 10723 10729 10734 10739 10744 10749 10754 10760 10765 10769 10775 10780 10785 10788 10793 10799 10804 10808 10812 10816 10820 10823 10826 10828
10763 10759 10756 10754 10750 10747 10743 10739 10735 10731 10726 10721 10717 10713 10709 10705 10700 10695 10690 10685 10679 10673 10667 10662 10656 10651 10645 10640 10635 10632 10628 10624 10622 10619 10617 10616 10615 10614 10614 10615 10616 10617 10619 10621 10624 10627 10630 10633 10637 10641 10646 10653 10660 10667 10674 10680 10687 10693 10699 10705 10710 10715 10721 10727 10731 10737 10742 10748 10753 10757 10762 10768 10773 10778 10783 10789 10794 10799 10803 10807 10811 10814 10818 10821 10824
10755 10751 10748 10746 10742 10739 10735 10731 10728 10724 10719 10713 10709 10705 10701 10697 10692 10687 10682 10676 10670 10664 10658 10653 10647 10642 10636 10631 10627 10623 10620 10617 10614 10612 10610 10609 10608 10608 10608 10610 10611 10612 10614 10617 10620 10623 10625 10628 10632 10636 10640 10647 10654 10661 10668 10674 10680 10686 10693 10699 10704 10710 10716 10720 10725 10730 10736 10742 10747 10751 10756 10762 10767 10773 10780 10785 10789 10794 10798 10802 10806 10810 10814 10817 10819
10746 10742 10740 10738 10734 10731 10727 10724 10720 10716 10711 10706 10701 10697 10693 10688 10684 10678 10673 10668 10661 10654 10649 10644 10639 10633 10628 10623 10618 10615 10612 10609 10607 10605 10603 10603 10603 10602 10603 10605 10606 10608 10610 10613 10616 10618 10620 10623 10627 10631 10635 10641 10648 10655 10663 10669 10674 10680 10687 10693 10699 10705 10710 10714 10719 10725 10730 10736 10741 10745 10751 10757 10763 10769 10776 10780 10784 10789 10792 10796 10802 10806 10809 10811 10812
10737 10734 10733 10731 10727 10723 10720 10716 10712 10708 10704 10699 10694 10689 10685 10680 10675 10670 10665 10659 10652 10646 10639 10635 10631 10625 10620 10615 10611 10608 10605 10603 10600 10599 10598 10597 10597 10597 10598 10600 10602 10604 10607 10609 10612 10614 10616 10619 10623 10627 10631 10636 10642 10649 10656 10663 10668 10674 10681 10687 10693 10698 10703 10708 10714 10720 10725 10730 10735 10740 10746 10753 10758 10764 10771 10775 10779 10782 10786 10791 10797 10800 10803 10805 10806
10729 10727 10725 10723 10720 10716 10712 10708 10704 10700 10696 10692 10686 10681 10675 10670 10665 10661 10656 10649 10644 10637 10631 10626 10622 10617 10612 10607 10604 10601 10598 10596 10594 10593 10592 10592 10592 10593 10594 10596 10598 10601 10603 10606 10609 10611 10613 10616 10620 10624 10628 10633 10638 10644 10650 10656 10662 10669 10675 10681 10687 10692 10697 10703 10710 10715 10720 10725 10730 10735 10741 10747 10752 10758 10764 10768 10773 10777 10780 10785 10790 10794 10796 10798 10799
10721 10719 10717 10715 10712 10708 10704 10700 10696 10693 10688 10684 10679 10674 10668 10661 10657 10653 10647 10641 10635 10629 10623 10617 10613 10609 10604 10600 10596 10594 10592 10590 10589 10587 10586 10586 10587 10588 10590 10592 10595 10598 10600 10603 10606 10608 10610 10614 10617 10621 10625 10630 10635 10640 10645 10650 10656 10663 10669 10676 10681 10686 10692 10699 10705 10709 10714 10719 10724 10729 10735 10740 10746 10752 10758 10763 10769 10773 10776 10779 10783 10787 10790 10791 10793
10713 10711 10709 10706 10703 10699 10696 10692 10689 10685 10681 10675 10670 10666 10660 10654 10649 10644 10639 10632 10627 10622 10616 10610 10605 10601 10597 10593 10590 10587 10585 10584 10583 10582 10581 10581 10582 10584 10586 10589 10591 10595 10598 10600 10603 10605 10608 10611 10615 10619 10623 10627 10631 10635 10640 10645 10650 10657 10664 10670 10675 10681 10688 10694 10699 10704 10710 10717 10721 10725 10730 10736 10742 10748 10753 10759 10764 10767 10770 10774 10777 10781 10784 10785 10787
10706 10703 10700 10698 10694 10691 10688 10684 10681 10677 10673 10667 10662 10657 10652 10646 10641 10636 10630 10624 10619 10614 10609 10603 10597 10593 10590 10586 10583 10581 10579 10578 10577 10577 10576 10576 10578 10580 10582 10585 10588 10591 10594 10597 10600 10603 10606 10609 10612 10616 10620 10624 10627 10631 10635 10640 10645 10651 10657 10664 10670 10676 10683 10689 10694 10700 10707 10714 10717 10720 10725 10731 10737 10742 10747 10752 10756 10760 10764 10768 10771 10775 10777 10779 10782
10697 10694 10692 10688 10685 10682 10679 10676 10673 10669 10664 10659 10654 10649 10644 10639 10633 10628 10623 10617 10611 10606 10601 10596 10590 10586 10583 10581 10578 10575 10573 10572 10572 10572 10571 10572 10574 10576 10578 10581 10585 10588 10591 10594 10597 10600 10603 10606 10609 10613 10617 10621 10624 10628 10631 10635 10640 10645 10652 10658 10664 10671 10677 10683 10689 10695 10703 10709 10712 10715 10720 10725 10730 10735 10739 10744 10748 10753 10757 10761 10764 10768 10770 10772 10776
10688 10685 10682 10679 10676 10673 10670 10667 10663 10660 10655 10650 10645 10640 10635 10630 10625 10620 10615 10609 10603 10598 10593 10589 10583 10579 10576 10575 10572 10570 10568 10567 10567 10567 10567 10568 10570 10572 10575 10577 10581 10585 10588 10591 10595 10598 10600 10603 10607 10611 10614 10618 10621 10624 10628 10631 10636 10641 10647 10652 10658 10665 10672 10678 10684 10690 10696 10701 10705 10710 10715 10719 10723 10728 10733 10737 10742 10747 10751 10754 10757 10761 10764 10765 10770
10679 10676 10673 10670 10667 10665 10662 10658 10654 10651 10647 10642 10637 10631 10626 10621 10616 10611 10607 10601 10595 10590 10586 10582 10577 10573 10570 10568 10566 10564 10563 10562 10562 10562 10562 10564 10566 10568 10571 10574 10577 10581 10585 10588 10592 10595 10598 10600 10604 10608 10612 10615 10619 10622 10625 10628 10632 10637 10642 10647 10653 10660 10666 10673 10678 10684 10689 10693 10698 10704 10710 10714 10719 10724 10728 10732 10737 10742 10746 10749 10753 10756 10757 10758 10764
10671 10668 10665 10662 10659 10656 10653 10650 10645 10641 10638 10634 10628 10622 10617 10613 10607 10602 10598 10594 10588 10582 10578 10575 10570 10566 10564 10562 10560 10559 10558 10557 10557 10558 10558 10560 10562 10564 10567 10570 10573 10577 10581 10584 10588 10592 10595 10598 10601 10605 10608 10612 10616 10619 10622 10625 10629 10633 10637 10642 10648 10654 10660 10666 10671 10677 10682 10686 10691 10697 10703 10708 10713 10717 10721 10725 10729 10734 10739 10742 10746 10748 10749 10752 10757
10663 10660 10657 10654 10651 10648 10644 10640 10637 10632 10628 10624 10620 10614 10608 10604 10599 10593 10589 10586 10580 10575 10571 10568 10564 10560 10557 10556 10554 10553 10552 10552 10552 10553 10554 10556 10558 10561 10564 10567 10570 10573 10577 10581 10584 10588 10592 10595 10598 10601 10605 10608 10612 10616 10619 10622 10626 10629 10633 10638 10643 10648 10654 10659 10665 10670 10675 10680 10685 10689 10694 10699 10703 10707 10712 10716 10720 10725 10730 10734 10738 10741 10743 10745 10750
10655 10652 10649 10646 10643 10639 10635 10631 10628 10624 10620 10615 10611 10606 10600 10595 10590 10585 10580 10577 10573 10568 10564 10561 10557 10553 10551 10550 10549 10548 10547 10547 10548 10549 10550 10552 10554 10557 10560 10563 10566 10569 10573 10576 10580 10583 10587 10591 10594 10597 10601 10604 10608 10611 10615 10619 10623 10626 10630 10635 10639 10644 10649 10654 10659 10664 10669 10674 10678 10683 10687 10690 10694 10698 10704 10707 10711 10716 10722 10726 10730 10733 10735 10738 10744
10645 10643 10640 10637 10634 10630 10626 10622 10620 10616 10612 10607 10603 10597 10591 10587 10582 10576 10572 10569 10565 10561 10558 10554 10551 10547 10545 10544 10544 10543 10542 10542 10543 10544 10545 10547 10550 10553 10556 10559 10562 10565 10569 10572 10575 10579 10583 10586 10590 10594 10597 10601 10604 10608 10612 10616 10620 10624 10628 10631 10636 10640 10645 10650 10655 10660 10664 10668 10672 10676 10680 10684 10688 10692 10696 10700 10704 10709 10714 10718 10722 10725 10728 10732 10738
10636 10633 10631 10628 10624 10621 10617 10614 10610 10606 10603 10600 10596 10588 10582 10578 10575 10569 10565 10561 10556 10553 10551 10548 10544 10541 10539 10539 10539 10539 10538 10538 10539 10539 10541 10542 10545 10548 10551 10554 10558 10561 10564 10567 10571 10574 10578 10582 10586 10590 10593 10597 10601 10604 10608 10612 10616 10621 10624 10628 10632 10637 10641 10646 10651 10655 10659 10663 10667 10671 10675 10679 10684 10687 10691 10694 10698 10702 10706 10710 10714 10718 10722 10726 10730
10626 10623 10621 10617 10614 10611 10607 10604 10601 10597 10593 10592 10590 10583 10575 10570 10566 10562 10558 10553 10549 10545 10544 10541 10538 10536 10534 10533 10534 10534 10533 10534 10534 10535 10536 10537 10540 10543 10546 10550 10553 10556 10559 10563 10566 10570 10574 10578 10582 10586 10589 10593 10597 10601 10604 10608 10612 10616 10621 10625 10629 10633 10637 10641 10646 10650 10654 10658 10662 10666 10670 10674 10678 10681 10684 10689 10693 10697 10700 10704 10707 10711 10714 10718 10722
10616 10613 10610 10607 10603 10600 10596 10593 10590 10587 10584 10582 10580 10575 10568 10562 10557 10554 10551 10546 10541 10538 10536 10534 10532 10530 10529 10528 10529 10529 10529 10529 10530 10530 10531 10532 10535 10537 10541 10544 10548 10551 10555 10558 10562 10565 10569 10573 10577 10581 10585 10589 10593 10596 10600 10604 10608 10612 10616 10620 10625 10628 10632 10636 10640 10644 10647 10651 10655 10659 10664 10668 10673 10677 10679 10682 10685 10689 10692 10697 10700 10703 10706 10709 10712
10605 10602 10599 10596 10593 10589 10586 10582 10579 10577 10575 10572 10569 10565 10560 10554 10549 10545 10543 10539 10534 10530 10529 10528 10526 10524 10523 10523 10523 10524 10524 10524 10525 10526 10526 10528 10529 10532 10535 10539 10543 10546 10550 10553 10557 10560 10564 10568 10572 10576 10580 10584 10588 10592 10595 10599 10603 10607 10610 10614 10618 10622 10626 10629 10633 10637 10640 10644 10647 10651 10656 10663 10668 10673 10675 10677 10678 10680 10682 10687 10691 10694 10697 10701 10705
10595 10591 10588 10585 10582 10579 10575 10572 10570 10567 10565 10562 10559 10555 10551 10546 10542 10537 10533 10531 10527 10523 10521 10521 10519 10518 10518 10518 10518 10518 10519 10520 10520 10521 10522 10523 10524 10527 10530 10533 10537 10541 10544 10548 10551 10555 10559 10563 10566 10570 10574 10578 10582 10586 10590 10594 10598 10601 10605 10609 10612 10616 10620 10623 10626 10630 10633 10637 10640 10643 10649 10655 10661 10666 10669 10671 10671 10672 10674 10677 10681 10685 10690 10694 10698
10585 10582 10578 10574 10571 10568 10565 10562 10560 10557 10555 10553 10550 10546 10542 10538 10534 10528 10524 10522 10520 10517 10515 10514 10513 10512 10512 10513 10513 10513 10514 10515 10515 10516 10516 10518 10519 10521 10524 10527 10531 10535 10538 10542 10545 10549 10553 10557 10560 10564 10568 10572 10576 10580 10585 10589 10592 10595 10599 10603 10606 10610 10613 10616 10620 10623 10627 10630 10633 10636 10641 10646 10651 10656 10659 10661 10662 10664 10666 10669 10673 10677 10682 10686 10690
10574 10572 10568 10564 10560 10557 10555 10552 10549 10547 10545 10542 10540 10537 10534 10530 10526 10523 10520 10518 10516 10512 10509 10508 10507 10506 10507 10507 10508 10508 10509 10509 10510 10510 10511 10512 10513 10515 10518 10521 10524 10528 10532 10535 10539 10542 10546 10550 10553 10557 10561 10566 10570 10573 10578 10582 10586 10589 10593 10597 10600 10603 10607 10610 10613 10616 10620 10624 10627 10630 10634 10638 10642 10646 10649 10652 10654 10656 10658 10661 10665 10669 10673 10678 10681
10563 10560 10557 10553 10549 10547 10544 10541 10538 10536 10533 10531 10529 10527 10525 10522 10519 10517 10514 10512 10509 10506 10504 10502 10500 10500 10501 10501 10502 10503 10503 10503 10504 10505 10506 10507 10508 10509 10512 10515 10517 10521 10525 10528 10532 10535 10539 10543 10546 10550 10554 10558 10562 10566 10570 10575 10579 10582 10586 10590 10593 10596 10600 10603 10606 10609 10612 10616 10620 10623 10627 10630 10634 10637 10640 10643 10645 10648 10651 10654 10658 10661 10664 10668 10671
10551 10547 10544 10541 10539 10536 10532 10529 10527 10524 10522 10520 10518 10516 10514 10512 10509 10506 10504 10502 10500 10498 10496 10494 10493 10494 10495 10496 10496 10497 10497 10498 10499 10499 10500 10501 10502 10503 10505 10508 10511 10514 10517 10521 10524 10528 10531 10535 10538 10542 10546 10550 10554 10558 10562 10566 10571 10575 10578 10582 10586 10589 10592 10595 10598 10601 10605 10608 10612 10615 10618 10622 10625 10629 10632 10634 10637 10639 10642 10646 10649 10652 10654 10657 10660
10538 10535 10532 10530 10527 10524 10521 10518 10515 10514 10512 10510 10507 10505 10503 10500 10497 10495 10493 10492 10491 10490 10488 10487 10487 10487 10488 10489 10490 10490 10491 10491 10492 10493 10494 10495 10496 10497 10499 10501 10503 10506 10510 10513 10517 10520 10523 10527 10530 10534 10538 10542 10546 10549 10553 10557 10562 10566 10570 10573 10577 10580 10583 10587 10590 10593 10596 10600 10603 10607 10610 10612 10616 10619 10623 10626 10628 10630 10633 10636 10639 10642 10644 10646 10649
10526 10524 10522 10519 10516 10514 10511 10507 10505 10503 10502 10499 10497 10496 10492 10489 10487 10486 10484 10482 10482 10482 10481 10481 10481 10481 10482 10483 10483 10483 10484 10484 10485 10487 10488 10489 10489 10490 10492 10493 10496 10498 10501 10505 10508 10511 10515 10518 10522 10525 10529 10533 10537 10540 10544 10548 10552 10557 10561 10565 10568 10571 10575 10578 10582 10585 10588 10591 10595 10598 10602 10604 10607 10610 10613 10616 10619 10621 10623 10626 10629 10632 10635 10637 10639
10515 10513 10511 10508 10506 10503 10501 10497 10495 10493 10491 10489 10487 10486 10483 10480 10478 10477 10475 10474 10474 10474 10474 10474 10474 10475 10475 10476 10477 10477 10477 10477 10478 10480 10481 10482 10483 10484 10484 10486 10487 10490 10493 10496 10499 10502 10506 10509 10513 10516 10520 10523 10527 10531 10534 10538 10542 10547 10551 10555 10559 10562 10566 10569 10573 10576 10579 10583 10586 10590 10593 10596 10599 10601 10604 10607 10609 10611 10614 10617 10619 10622 10624 10627 10629
10503 10501 10499 10497 10495 10493 10490 10487 10485 10483 10481 10479 10477 10476 10474 10472 10470 10468 10467 10467 10466 10466 10467 10467 10468 10468 10469 10470 10470 10471 10471 10471 10471 10473 10474 10475 10475 10476 10477 10478 10479 10481 10484 10487 10490 10493 10497 10500 10504 10507 10511 10514 10518 10521 10524 10528 10532 10537 10541 10544 10549 10553 10556 10559 10562 10566 10569 10573 10577 10580 10583 10587 10590 10592 10595 10597 10599 10601 10604 10607 10610 10612 10614 10616 10619
10492 10490 10488 10486 10485 10483 10480 10477 10475 10473 10471 10469 10467 10466 10465 10464 10462 10461 10460 10460 10460 10459 10460 10460 10460 10461 10461 10462 10463 10464 10463 10463 10464 10465 10466 10467 10467 10468 10469 10470 10471 10472 10475 10477 10481 10484 10487 10491 10494 10498 10501 10505 10508 10511 10515 10518 10522 10526 10530 10534 10538 10542 10546 10549 10552 10555 10558 10562 10565 10569 10573 10576 10580 10583 10585 10587 10589 10591 10593 10596 10599 10601 10603 10606 10608
10481 10479 10477 10475 10474 10473 10470 10467 10465 10463 10462 10460 10459 10457 10456 10455 10454 10454 10453 10453 10453 10453 10453 10453 10453 10453 10453 10454 10454 10455 10455 10455 10456 10457 10458 10458 10459 10459 10461 10462 10463 10465 10466 10468 10471 10474 10477 10481 10484 10488 10491 10495 10499 10502 10505 10508 10512 10516 10520 10523 10527 10531 10535 10538 10542 10545 10548 10551 10554 10557 10561 10564 10568 10571 10574 10577 10579 10581 10584 10586 10589 10591 10593 10594 10596
10471 10469 10467 10465 10464 10462 10461 10459 10456 10454 10453 10452 10451 10449 10448 10447 10446 10446 10446 10446 10446 10446 10445 10445 10445 10445 10445 10446 10446 10446 10447 10447 10448 10448 10449 10449 10450 10451 10452 10454 10455 10457 10458 10459 10461 10464 10467 10471 10474 10478 10481 10485 10488 10492 10496 10499 10502 10505 10509 10513 10517 10520 10523 10527 10530 10534 10537 10540 10543 10546 10549 10552 10556 10559 10563 10566 10568 10571 10573 10576 10579 10581 10582 10584 10586
10461 10460 10458 10456 10455 10453 10451 10450 10448 10446 10445 10444 10443 10442 10441 10440 10439 10438 10438 10438 10437 10437 10437 10437 10437 10437 10438 10438 10438 10438 10439 10439 10439 10440 10440 10441 10441 10442 10444 10445 10447 10448 10450 10451 10452 10454 10457 10460 10463 10467 10471 10474 10478 10482 10485 10489 10492 10495 10498 10502 10506 10509 10513 10516 10519 10522 10526 10529 10532 10535 10538 10540 10544 10547 10550 10553 10556 10559 10561 10564 10567 10570 10572 10573 10575
10452 10451 10449 10448 10446 10444 10442 10441 10440 10439 10437 10436 10435 10434 10434 10433 10432 10431 10430 10430 10430 10430 10429 10429 10430 10430 10430 10430 10430 10431 10431 10431 10431 10431 10432 10432 10433 10434 10435 10436 10438 10439 10441 10442 10444 10445 10447 10450 10453 10456 10459 10463 10467 10471 10474 10478 10481 10484 10487 10491 10495 10498 10502 10505 10508 10511 10514 10517 10520 10524 10527 10529 10532 10535 10538 10540 10543 10546 10549 10552 10555 10557 10560 10562 10564
10443 10442 10441 10439 10438 10436 10434 10433 10432 10431 10430 10429 10428 10427 10426 10425 10424 10423 10423 10422 10422 10422 10422 10421 10421 10422 10422 10422 10423 10423 10423 10423 10423 10423 10423 10424 10424 10425 10426 10427 10428 10430 10431 10433 10434 10436 10437 10439 10442 10445 10448 10451 10455 10459 10463 10466 10469 10473 10476 10479 10483 10486 10490 10493 10497 10500 10502 10505 10508 10511 10514 10517 10520 10522 10525 10528 10531 10533 10536 10539 10542 10544 10547 10549 10552
10435 10434 10432 10431 10430 10428 10427 10425 10424 10423 10422 10422 10421 10420 10419 10418 10417 10416 10416 10415 10415 10415 10414 10414 10414 10414 10414 10415 10415 10415 10415 10415 10415 10415 10415 10416 10416 10417 10417 10418 10419 10420 10422 10423 10425 10426 10427 10429 10431 10433 10436 10439 10443 10446 10450 10454 10457 10460 10464 10467 10470 10474 10477 10480 10484 10487 10490 10493 10496 10498 10501 10504 10507 10510 10512 10515 10518 10520 10523 10525 10528 10531 10533 10536 10538
10427 10426 10425 10423 10422 10420 10419 10418 10417 10416 10415 10414 10413 10413 10412 10411 10410 10409 10409 10408 10408 10407 10407 10407 10407 10407 10407 10407 10407 10407 10407 10407 10407 10407 10407 10408 10408 10408 10409 10409 10410 10411 10412 10413 10415 10416 10418 10419 10420 10422 10424 10427 10430 10433 10437 10441 10444 10448 10451 10454 10458 10461 10464 10467 10470 10474 10477 10480 10483 10485 10488 10491 10493 10496 10499 10502 10504 10507 10509 10512 10514 10517 10519 10522 10525
10419 10418 10417 10416 10414 10413 10412 10411 10410 10409 10408 10407 10406 10406 10405 10404 10403 10403 10402 10402 10401 10401 10400 10400 10400 10400 10399 10399 10399 10399 10399 10399 10399 10399 10399 10399 10400 10400 10401 10401 10402 10402 10403 10404 10405 10406 10408 10409 10411 10412 10414 10416 10419 10421 10424 10427 10431 10434 10438 10441 10444 10448 10451 10454 10457 10460 10463 10466 10469 10472 10474 10477 10479 10482 10484 10487 10490 10493 10495 10498 10500 10502 10505 10508 10510